Flag for Germany Weather past 2 weeks in Berlin, Berlin, Germany

Now
65 °F

Mild.


Feels Like: 65 °F
Forecast: 52 / 64 °F
Wind: 3 mph from West

Location: Berlin-Tempelhof

Current Time: Sep 4, 2015 at 12:47:59 PM

Latest Report: Sep 4, 2015 at 12:00 PM


Visibility: N/A

Pressure: 29.95 "Hg

Humidity: 62%

Dew point: 51 °F

Location of BerlinLocation

Historic Weather in Berlin — Graph

°F

Berlin temperature yesterday

Maximum temperature yesterday: 65 °F (at 3:00 PM)
Minimum temperature yesterday: 52 °F (at 4:00 AM)
Average temperature yesterday: 59 °F

Past Weeks' High & Low Weather Summary

 TemperatureHumidityPressure
High95 °F (Aug 31, 4:00 PM)97% (Aug 29, 5:00 AM)30.33 "Hg (Aug 29, 5:00 AM)
Low52 °F (Sep 3, 4:00 AM)20% (Aug 22, 5:00 PM)29.71 "Hg (Sep 1, 5:00 PM)
Average69 °F61%30.01 "Hg
* Reported Aug 20 11:00 AM — Sep 4 11:00 AM, Berlin, Weather by CustomWeather, © 2015

Note: Actual official high and low records may vary slightly from our data, if they occured in-between our weather recording intervals... More about our weather records

Advertising

Berlin weather history for previous 24 hours

 ConditionsComfort  
Time TempWeatherWind HumidityBarometerVisibility
11:00 AM
Fri, Sep 4
65 °FMild.3 mph64%29.95 "HgN/A
10:00 AM62 °FCool.2 mph66%29.95 "HgN/A
9:00 AM59 °FCool.2 mph77%29.95 "HgN/A
8:00 AM55 °FCool.1 mph88%29.94 "HgN/A
7:00 AM52 °FCool.1 mph94%29.94 "HgN/A
6:00 AM52 °FCool.1 mph94%29.94 "HgN/A
5:00 AM52 °FCool.1 mph94%29.94 "HgN/A
4:00 AM53 °FCool.1 mph93%29.94 "HgN/A
3:00 AM55 °FCool.1 mph89%29.94 "HgN/A
2:00 AM57 °FCool.3 mph90%29.95 "HgN/A
1:00 AM58 °FCool.2 mph92%29.94 "HgN/A
11:00 PM
Thu, Sep 3
60 °FCool.1 mph87%29.94 "HgN/A
10:00 PM61 °FCool.2 mph87%29.96 "HgN/A
9:00 PM61 °FCool.1 mph86%29.96 "HgN/A
8:00 PM63 °FMild.2 mph80%29.94 "HgN/A
7:00 PM64 °FMild.2 mph75%29.93 "HgN/A
6:00 PM64 °FMild.2 mph73%29.93 "HgN/A
5:00 PM65 °FMild.2 mph67%29.94 "HgN/A
4:00 PM65 °FMild.3 mph69%29.94 "HgN/A
3:00 PM65 °FMild.3 mph63%29.95 "HgN/A
2:00 PM62 °FCool.3 mph80%29.96 "HgN/A
1:00 PM61 °FCool.3 mph77%29.96 "HgN/A
12:00 PM60 °FCool.2 mph79%29.98 "HgN/A
Weather by CustomWeather, © 2015

See weather overviewHow to use our weather pages